Regional Weather Roundup
Issued by NWS

Home | Current Version | Previous Version | Text Only | Print | Product List | Glossary Off
Versions: 1 2 3 4 5 6 7 8 9 10 11 12 13 14 15 16 17 18 19 20 21 22 23 24 25 26 27 28 29 30 31 32 33 34 35 36 37 38 39 40 41 42 43 44 45 46 47 48 49 50

000
ASUS43 KFSD 040302
RWRSD

WEATHER ROUNDUP FOR SOUTH DAKOTA
NATIONAL WEATHER SERVICE SIOUX FALLS SD
1000 PM CDT FRI JUL 03 2015

NOTE: "FAIR" INDICATES FEW OR NO CLOUDS BELOW 12,000 FEET WITH NO
SIGNIFICANT WEATHER AND/OR OBSTRUCTIONS TO VISIBILITY.


SDZ001>005-009-010-012>017-040400-
NORTHWEST AND NORTH CENTRAL SOUTH DAKOTA

CITY           SKY/WX    TMP DP  RH WIND       PRES   REMARKS
BUFFALO          N/A     72  59  63 SE12      29.85S
FAITH            N/A     69  61  75 SE8       29.93R
MOBRIDGE       PTCLDY    75  68  78 E7        29.88F HAZE
$$

SDZ012>016-024>037-041>051-057-063-072>074-040400-
SOUTHWEST AND SOUTH CENTRAL SOUTH DAKOTA

CITY           SKY/WX    TMP DP  RH WIND       PRES   REMARKS
RAPID CTY ARPT CLEAR     69  62  78 SE5       29.95S
PIERRE         CLEAR     70  64  81 SE7       29.90S HAZE
CUSTER         CLEAR     64  54  69 SE3       30.09S
ELLSWORTH AFB  CLEAR     70  61  74 SE9       29.95S
PHILIP         CLEAR     69  65  86 E6        29.92S FOG
PINE RIDGE     CLEAR     66  60  81 E6        29.98R
WINNER         FAIR      72  62  71 SE9       29.93S
$$

SDZ004>011-016>023-039-040-040400-
NORTHEAST SOUTH DAKOTA

CITY           SKY/WX    TMP DP  RH WIND       PRES   REMARKS
ABERDEEN       CLOUDY    71  67  87 CALM      29.91R FOG
WATERTOWN      MOCLDY    72  65  78 CALM      29.94R HAZE
BROOKINGS      CLEAR     72  64  78 SW6       29.96R
SISSETON         N/A     74  66  76 CALM      29.90S
$$

SDZ017-020-022-023-036>040-048>070-040400-
SOUTHEAST SOUTH DAKOTA

CITY           SKY/WX    TMP DP  RH WIND       PRES   REMARKS
SIOUX FALLS    MOCLDY    72  63  73 SW3       29.95R
HURON          CLEAR     74  66  76 S6        29.91S
MITCHELL       CLEAR     71  66  84 S6        29.93S
YANKTON        CLEAR     72  63  73 S3        29.94R
$$

ABBREVIATIONS USED IN REMARKS
   TC - TEMPERATURE IN CELSIUS
  WCI - WIND CHILL INDEX
   HX - HEAT INDEX
  VSB - VISIBILITY




USA.gov is the U.S. government's official web portal to all federal, state and local government web resources and services.